Tracking 32422 objects as of 8-Dec-2025
HD Live streaming from Space Station
objects crossing your sky now

STARLINK-33630

Track STARLINK-33630 now!
10-day predictions
STARLINK-33630 is classified as:


NORAD ID: 63477
Int'l Code: 2025-070T
Perigee: 489.4 km
Apogee: 490.9 km
Inclination: 43.0 °
Period: 94.3 minutes
Semi major axis: 6861 km
RCS: Unknown
Launch date: April 6, 2025
Source: United States (US)
Launch site: AIR FORCE EASTERN TEST RANGE (AFETR)
Your satellite tracking list
Your tracking list is empty




NASA's NSSDC Master Catalog

Two Line Element Set (TLE):
1 63477U 25070T   25341.27253066  .00038653  00000-0  14063-2 0  9998
2 63477  43.0009  58.1362 0001095 241.7740 118.3001 15.27590933 38885
Source of the keplerian elements: AFSPC